Year,Month,Day,Hour,Minute,Value (Times are PST for temperature in C)
2015,05,29,00,00,12.70
2015,05,29,00,01,12.70
2015,05,29,00,02,12.70
2015,05,29,00,03,12.70
2015,05,29,00,04,12.70
2015,05,29,00,05,12.70
2015,05,29,00,06,12.70
2015,05,29,00,07,12.70
2015,05,29,00,08,12.70
2015,05,29,00,09,12.70
2015,05,29,00,10,12.70
2015,05,29,00,11,12.70
2015,05,29,00,12,12.70
2015,05,29,00,13,12.70
2015,05,29,00,14,12.70
2015,05,29,00,15,12.70
2015,05,29,00,16,12.70
2015,05,29,00,17,12.70
2015,05,29,00,18,12.70
2015,05,29,00,19,12.70
2015,05,29,00,20,12.70
2015,05,29,00,21,12.70
2015,05,29,00,22,12.70
2015,05,29,00,23,12.70
2015,05,29,00,24,12.70
2015,05,29,00,25,12.70
2015,05,29,00,26,12.70
2015,05,29,00,27,12.80
2015,05,29,00,28,12.80
2015,05,29,00,29,12.80
2015,05,29,00,30,12.80
2015,05,29,00,31,12.80
2015,05,29,00,32,12.80
2015,05,29,00,33,12.80
2015,05,29,00,34,12.90
2015,05,29,00,35,12.90
2015,05,29,00,36,12.90
2015,05,29,00,37,12.90
2015,05,29,00,38,12.90
2015,05,29,00,39,12.90
2015,05,29,00,40,12.90
2015,05,29,00,41,12.90
2015,05,29,00,42,12.90
2015,05,29,00,43,12.90
2015,05,29,00,44,12.90
2015,05,29,00,45,12.90
2015,05,29,00,46,12.90
2015,05,29,00,47,12.90
2015,05,29,00,48,12.90
2015,05,29,00,49,12.90
2015,05,29,00,50,12.90
2015,05,29,00,51,12.80
2015,05,29,00,52,12.80
2015,05,29,00,53,12.80
2015,05,29,00,54,12.80
2015,05,29,00,55,12.80
2015,05,29,00,56,12.80
2015,05,29,00,57,12.80
2015,05,29,00,58,12.80
2015,05,29,00,59,12.80
2015,05,29,01,00,12.80
2015,05,29,01,01,12.80
2015,05,29,01,02,12.80
2015,05,29,01,03,12.80
2015,05,29,01,04,12.80
2015,05,29,01,05,12.80
2015,05,29,01,06,12.80
2015,05,29,01,07,12.80
2015,05,29,01,08,12.80
2015,05,29,01,09,12.80
2015,05,29,01,10,12.90
2015,05,29,01,11,12.90
2015,05,29,01,12,12.90
2015,05,29,01,13,12.90
2015,05,29,01,14,12.90
2015,05,29,01,15,13.00
2015,05,29,01,16,13.00
2015,05,29,01,17,13.10
2015,05,29,01,18,13.10
2015,05,29,01,19,13.10
2015,05,29,01,20,13.10
2015,05,29,01,21,13.10
2015,05,29,01,22,13.10
2015,05,29,01,23,13.10
2015,05,29,01,24,13.10
2015,05,29,01,25,13.10
2015,05,29,01,26,13.00
2015,05,29,01,27,13.00
2015,05,29,01,28,13.00
2015,05,29,01,29,12.90
2015,05,29,01,30,12.90
2015,05,29,01,31,12.90
2015,05,29,01,32,12.90
2015,05,29,01,33,12.90
2015,05,29,01,34,12.90
2015,05,29,01,35,12.90
2015,05,29,01,36,12.90
2015,05,29,01,37,12.90
2015,05,29,01,38,12.90
2015,05,29,01,39,13.00
2015,05,29,01,40,13.00
2015,05,29,01,41,13.00
2015,05,29,01,42,13.00
2015,05,29,01,43,13.00
2015,05,29,01,44,13.00
2015,05,29,01,45,13.00
2015,05,29,01,46,13.00
2015,05,29,01,47,13.00
2015,05,29,01,48,13.00
2015,05,29,01,49,13.00
2015,05,29,01,50,13.00
2015,05,29,01,51,13.00
2015,05,29,01,52,13.00
2015,05,29,01,53,13.00
2015,05,29,01,54,13.00
2015,05,29,01,55,13.00
2015,05,29,01,56,13.00
2015,05,29,01,57,12.90
2015,05,29,01,58,12.90
2015,05,29,01,59,12.90
2015,05,29,02,00,12.90
2015,05,29,02,01,12.90
2015,05,29,02,02,12.90
2015,05,29,02,03,12.90
2015,05,29,02,04,12.90
2015,05,29,02,05,12.90
2015,05,29,02,06,12.90
2015,05,29,02,07,12.90
2015,05,29,02,08,12.90
2015,05,29,02,09,12.90
2015,05,29,02,10,12.80
2015,05,29,02,11,12.80
2015,05,29,02,12,12.80
2015,05,29,02,13,12.80
2015,05,29,02,14,12.80
2015,05,29,02,15,12.80
2015,05,29,02,16,12.80
2015,05,29,02,17,12.80
2015,05,29,02,18,12.80
2015,05,29,02,19,12.80
2015,05,29,02,20,12.80
2015,05,29,02,21,12.80
2015,05,29,02,22,12.80
2015,05,29,02,23,12.80
2015,05,29,02,24,12.80
2015,05,29,02,25,12.80
2015,05,29,02,26,12.70
2015,05,29,02,27,12.70
2015,05,29,02,28,12.70
2015,05,29,02,29,12.70
2015,05,29,02,30,12.70
2015,05,29,02,31,12.70
2015,05,29,02,32,12.70
2015,05,29,02,33,12.70
2015,05,29,02,34,12.70
2015,05,29,02,35,12.70
2015,05,29,02,36,12.70
2015,05,29,02,37,12.70
2015,05,29,02,38,12.70
2015,05,29,02,39,12.70
2015,05,29,02,40,12.70
2015,05,29,02,41,12.70
2015,05,29,02,42,12.70
2015,05,29,02,43,12.70
2015,05,29,02,44,12.70
2015,05,29,02,45,12.70
2015,05,29,02,46,12.70
2015,05,29,02,47,12.80
2015,05,29,02,48,12.80
2015,05,29,02,49,12.80
2015,05,29,02,50,12.80
2015,05,29,02,51,12.80
2015,05,29,02,52,12.80
2015,05,29,02,53,12.80
2015,05,29,02,54,12.80
2015,05,29,02,55,12.80
2015,05,29,02,56,12.80
2015,05,29,02,57,12.80
2015,05,29,02,58,12.80
2015,05,29,02,59,12.80
2015,05,29,03,00,12.80
2015,05,29,03,01,12.80
2015,05,29,03,02,12.80
2015,05,29,03,03,12.80
2015,05,29,03,04,12.80
2015,05,29,03,05,12.80
2015,05,29,03,06,12.80
2015,05,29,03,07,12.80
2015,05,29,03,08,12.80
2015,05,29,03,09,12.80
2015,05,29,03,10,12.80
2015,05,29,03,11,12.80
2015,05,29,03,12,12.70
2015,05,29,03,13,12.70
2015,05,29,03,14,12.70
2015,05,29,03,15,12.70
2015,05,29,03,16,12.70
2015,05,29,03,17,12.70
2015,05,29,03,18,12.60
2015,05,29,03,19,12.60
2015,05,29,03,20,12.60
2015,05,29,03,21,12.60
2015,05,29,03,22,12.60
2015,05,29,03,23,12.60
2015,05,29,03,24,12.60
2015,05,29,03,25,12.70
2015,05,29,03,26,12.70
2015,05,29,03,27,12.70
2015,05,29,03,28,12.70
2015,05,29,03,29,12.80
2015,05,29,03,30,12.80
2015,05,29,03,31,12.80
2015,05,29,03,32,12.80
2015,05,29,03,33,12.70
2015,05,29,03,34,12.70
2015,05,29,03,35,12.70
2015,05,29,03,36,12.70
2015,05,29,03,37,12.70
2015,05,29,03,38,12.70
2015,05,29,03,39,12.70
2015,05,29,03,40,12.70
2015,05,29,03,41,12.60
2015,05,29,03,42,12.60
2015,05,29,03,43,12.60
2015,05,29,03,44,12.60
2015,05,29,03,45,12.60
2015,05,29,03,46,12.60
2015,05,29,03,47,12.60
2015,05,29,03,48,12.60
2015,05,29,03,49,12.60
2015,05,29,03,50,12.50
2015,05,29,03,51,12.50
2015,05,29,03,52,12.50
2015,05,29,03,53,12.50
2015,05,29,03,54,12.50
2015,05,29,03,55,12.50
2015,05,29,03,56,12.40
2015,05,29,03,57,12.40
2015,05,29,03,58,12.40
2015,05,29,03,59,12.40
2015,05,29,04,00,12.40
2015,05,29,04,01,12.40
2015,05,29,04,02,12.40
2015,05,29,04,03,12.40
2015,05,29,04,04,12.40
2015,05,29,04,05,12.50
2015,05,29,04,06,12.50
2015,05,29,04,07,12.50
2015,05,29,04,08,12.50
2015,05,29,04,09,12.50
2015,05,29,04,10,12.40
2015,05,29,04,11,12.40
2015,05,29,04,12,12.40
2015,05,29,04,13,12.40
2015,05,29,04,14,12.40
2015,05,29,04,15,12.40
2015,05,29,04,16,12.40
2015,05,29,04,17,12.40
2015,05,29,04,18,12.40
2015,05,29,04,19,12.40
2015,05,29,04,20,12.40
2015,05,29,04,21,12.30
2015,05,29,04,22,12.30
2015,05,29,04,23,12.30
2015,05,29,04,24,12.30
2015,05,29,04,25,12.30
2015,05,29,04,26,12.30
2015,05,29,04,27,12.30
2015,05,29,04,28,12.30
2015,05,29,04,29,12.20
2015,05,29,04,30,12.20
2015,05,29,04,31,12.20
2015,05,29,04,32,12.20
2015,05,29,04,33,12.20
2015,05,29,04,34,12.20
2015,05,29,04,35,12.30
2015,05,29,04,36,12.30
2015,05,29,04,37,12.30
2015,05,29,04,38,12.30
2015,05,29,04,39,12.30
2015,05,29,04,40,12.30
2015,05,29,04,41,12.30
2015,05,29,04,42,12.30
2015,05,29,04,43,12.30
2015,05,29,04,44,12.30
2015,05,29,04,45,12.30
2015,05,29,04,46,12.30
2015,05,29,04,47,12.30
2015,05,29,04,48,12.30
2015,05,29,04,49,12.30
2015,05,29,04,50,12.30
2015,05,29,04,51,12.30
2015,05,29,04,52,12.30
2015,05,29,04,53,12.30
2015,05,29,04,54,12.20
2015,05,29,04,55,12.20
2015,05,29,04,56,12.20
2015,05,29,04,57,12.20
2015,05,29,04,58,12.10
2015,05,29,04,59,12.10
2015,05,29,05,00,12.10
2015,05,29,05,01,12.10
2015,05,29,05,02,12.10
2015,05,29,05,03,12.10
2015,05,29,05,04,12.10
2015,05,29,05,05,12.00
2015,05,29,05,06,11.90
2015,05,29,05,07,11.90
2015,05,29,05,08,11.90
2015,05,29,05,09,11.90
2015,05,29,05,10,11.90
2015,05,29,05,11,11.90
2015,05,29,05,12,11.90
2015,05,29,05,13,11.90
2015,05,29,05,14,11.80
2015,05,29,05,15,11.80
2015,05,29,05,16,11.80
2015,05,29,05,17,11.80
2015,05,29,05,18,11.80
2015,05,29,05,19,11.80
2015,05,29,05,20,11.80
2015,05,29,05,21,11.80
2015,05,29,05,22,11.80
2015,05,29,05,23,11.80
2015,05,29,05,24,11.80
2015,05,29,05,25,11.80
2015,05,29,05,26,11.80
2015,05,29,05,27,11.80
2015,05,29,05,28,11.70
2015,05,29,05,29,11.70
2015,05,29,05,30,11.70
2015,05,29,05,31,11.70
2015,05,29,05,32,11.60
2015,05,29,05,33,11.60
2015,05,29,05,34,11.60
2015,05,29,05,35,11.60
2015,05,29,05,36,11.60
2015,05,29,05,37,11.50
2015,05,29,05,38,11.50
2015,05,29,05,39,11.50
2015,05,29,05,40,11.40
2015,05,29,05,41,11.40
2015,05,29,05,42,11.40
2015,05,29,05,43,11.40
2015,05,29,05,44,11.40
2015,05,29,05,45,11.40
2015,05,29,05,46,11.40
2015,05,29,05,47,11.40
2015,05,29,05,48,11.40
2015,05,29,05,49,11.40
2015,05,29,05,50,11.30
2015,05,29,05,51,11.30
2015,05,29,05,52,11.30
2015,05,29,05,53,11.30
2015,05,29,05,54,11.30
2015,05,29,05,55,11.30
2015,05,29,05,56,11.30
2015,05,29,05,57,11.30
2015,05,29,05,58,11.30
2015,05,29,05,59,11.30
2015,05,29,06,00,11.30
2015,05,29,06,01,11.30
2015,05,29,06,02,11.30
2015,05,29,06,03,11.30
2015,05,29,06,04,11.30
2015,05,29,06,05,11.30
2015,05,29,06,06,11.30
2015,05,29,06,07,11.30
2015,05,29,06,08,11.30
2015,05,29,06,09,11.30
2015,05,29,06,10,11.30
2015,05,29,06,11,11.30
2015,05,29,06,12,11.30
2015,05,29,06,13,11.30
2015,05,29,06,14,11.30
2015,05,29,06,15,11.30
2015,05,29,06,16,11.30
2015,05,29,06,17,11.30
2015,05,29,06,18,11.30
2015,05,29,06,19,11.30
2015,05,29,06,20,11.30
2015,05,29,06,21,11.30
2015,05,29,06,22,11.30
2015,05,29,06,23,11.30
2015,05,29,06,24,11.30
2015,05,29,06,25,11.30
2015,05,29,06,26,11.30
2015,05,29,06,27,11.30
2015,05,29,06,28,11.30
2015,05,29,06,29,11.30
2015,05,29,06,30,11.30
2015,05,29,06,31,11.30
2015,05,29,06,32,11.30
2015,05,29,06,33,11.40
2015,05,29,06,34,11.40
2015,05,29,06,35,11.40
2015,05,29,06,36,11.40
2015,05,29,06,37,11.40
2015,05,29,06,38,11.40
2015,05,29,06,39,11.50
2015,05,29,06,40,11.50
2015,05,29,06,41,11.50
2015,05,29,06,42,11.60
2015,05,29,06,43,11.60
2015,05,29,06,44,11.60
2015,05,29,06,45,11.70
2015,05,29,06,46,11.70
2015,05,29,06,47,11.80
2015,05,29,06,48,11.80
2015,05,29,06,49,11.80
2015,05,29,06,50,11.90
2015,05,29,06,51,11.90
2015,05,29,06,52,12.00
2015,05,29,06,53,12.00
2015,05,29,06,54,12.10
2015,05,29,06,55,12.10
2015,05,29,06,56,12.20
2015,05,29,06,57,12.20
2015,05,29,06,58,12.20
2015,05,29,06,59,12.30
2015,05,29,07,00,12.30
2015,05,29,07,01,12.40
2015,05,29,07,02,12.40
2015,05,29,07,03,12.40
2015,05,29,07,04,12.50
2015,05,29,07,05,12.50
2015,05,29,07,06,12.50
2015,05,29,07,07,12.60
2015,05,29,07,08,12.60
2015,05,29,07,09,12.70
2015,05,29,07,10,12.70
2015,05,29,07,11,12.80
2015,05,29,07,12,12.80
2015,05,29,07,13,12.90
2015,05,29,07,14,12.90
2015,05,29,07,15,13.00
2015,05,29,07,16,13.10
2015,05,29,07,17,13.20
2015,05,29,07,18,13.30
2015,05,29,07,19,13.40
2015,05,29,07,20,13.40
2015,05,29,07,21,13.50
2015,05,29,07,22,13.60
2015,05,29,07,23,13.70
2015,05,29,07,24,13.80
2015,05,29,07,25,13.80
2015,05,29,07,26,13.90
2015,05,29,07,27,14.00
2015,05,29,07,28,14.10
2015,05,29,07,29,14.20
2015,05,29,07,30,14.30
2015,05,29,07,31,14.30
2015,05,29,07,32,14.40
2015,05,29,07,33,14.40
2015,05,29,07,34,14.50
2015,05,29,07,35,14.50
2015,05,29,07,36,14.50
2015,05,29,07,37,14.50
2015,05,29,07,38,14.60
2015,05,29,07,39,14.60
2015,05,29,07,40,14.60
2015,05,29,07,41,14.60
2015,05,29,07,42,14.60
2015,05,29,07,43,14.70
2015,05,29,07,44,14.70
2015,05,29,07,45,14.70
2015,05,29,07,46,14.70
2015,05,29,07,47,14.70
2015,05,29,07,48,14.80
2015,05,29,07,49,14.80
2015,05,29,07,50,14.80
2015,05,29,07,51,14.80
2015,05,29,07,52,14.80
2015,05,29,07,53,14.80
2015,05,29,07,54,14.90
2015,05,29,07,55,14.90
2015,05,29,07,56,14.90
2015,05,29,07,57,14.90
2015,05,29,07,58,15.00
2015,05,29,07,59,15.00
2015,05,29,08,00,15.10
2015,05,29,08,01,15.10
2015,05,29,08,02,15.10
2015,05,29,08,03,15.20
2015,05,29,08,04,15.30
2015,05,29,08,05,15.30
2015,05,29,08,06,15.40
2015,05,29,08,07,15.50
2015,05,29,08,08,15.60
2015,05,29,08,09,15.60
2015,05,29,08,10,15.70
2015,05,29,08,11,15.70
2015,05,29,08,12,15.80
2015,05,29,08,13,15.80
2015,05,29,08,14,15.90
2015,05,29,08,15,15.90
2015,05,29,08,16,16.00
2015,05,29,08,17,16.00
2015,05,29,08,18,16.10
2015,05,29,08,19,16.10
2015,05,29,08,20,16.10
2015,05,29,08,21,16.10
2015,05,29,08,22,16.10
2015,05,29,08,23,16.10
2015,05,29,08,24,16.20
2015,05,29,08,25,16.30
2015,05,29,08,26,16.30
2015,05,29,08,27,16.40
2015,05,29,08,28,16.50
2015,05,29,08,29,16.60
2015,05,29,08,30,16.60
2015,05,29,08,31,16.60
2015,05,29,08,32,16.60
2015,05,29,08,33,16.60
2015,05,29,08,34,16.60
2015,05,29,08,35,16.60
2015,05,29,08,36,16.70
2015,05,29,08,37,16.70
2015,05,29,08,38,16.70
2015,05,29,08,39,16.70
2015,05,29,08,40,16.70
2015,05,29,08,41,16.70
2015,05,29,08,42,16.80
2015,05,29,08,43,16.80
2015,05,29,08,44,16.90
2015,05,29,08,45,16.90
2015,05,29,08,46,17.00
2015,05,29,08,47,17.10
2015,05,29,08,48,17.10
2015,05,29,08,49,17.10
2015,05,29,08,50,17.10
2015,05,29,08,51,17.10
2015,05,29,08,52,17.10
2015,05,29,08,53,17.10
2015,05,29,08,54,17.10
2015,05,29,08,55,17.20
2015,05,29,08,56,17.20
2015,05,29,08,57,17.20
2015,05,29,08,58,17.20
2015,05,29,08,59,17.30
2015,05,29,09,00,17.40
2015,05,29,09,01,17.50
2015,05,29,09,02,17.50
2015,05,29,09,03,17.60
2015,05,29,09,04,17.60
2015,05,29,09,05,17.70
2015,05,29,09,06,17.70
2015,05,29,09,07,17.80
2015,05,29,09,08,17.80
2015,05,29,09,09,17.80
2015,05,29,09,10,17.90
2015,05,29,09,11,17.90
2015,05,29,09,12,18.00
2015,05,29,09,13,18.00
2015,05,29,09,14,18.00
2015,05,29,09,15,18.10
2015,05,29,09,16,18.10
2015,05,29,09,17,18.20
2015,05,29,09,18,18.20
2015,05,29,09,19,18.20
2015,05,29,09,20,18.20
2015,05,29,09,21,18.20
2015,05,29,09,22,18.20
2015,05,29,09,23,18.30
2015,05,29,09,24,18.30
2015,05,29,09,25,18.40
2015,05,29,09,26,18.40
2015,05,29,09,27,18.50
2015,05,29,09,28,18.50
2015,05,29,09,29,18.50
2015,05,29,09,30,18.60
2015,05,29,09,31,18.60
2015,05,29,09,32,18.70
2015,05,29,09,33,18.70
2015,05,29,09,34,18.70
2015,05,29,09,35,18.80
2015,05,29,09,36,18.80
2015,05,29,09,37,18.90
2015,05,29,09,38,19.00
2015,05,29,09,39,19.00
2015,05,29,09,40,19.10
2015,05,29,09,41,19.20
2015,05,29,09,42,19.20
2015,05,29,09,43,19.30
2015,05,29,09,44,19.30
2015,05,29,09,45,19.40
2015,05,29,09,46,19.40
2015,05,29,09,47,19.40
2015,05,29,09,48,19.40
2015,05,29,09,49,19.40
2015,05,29,09,50,19.50
2015,05,29,09,51,19.60
2015,05,29,09,52,19.60
2015,05,29,09,53,19.60
2015,05,29,09,54,19.60
2015,05,29,09,55,19.60
2015,05,29,09,56,19.50
2015,05,29,09,57,19.40
2015,05,29,09,58,19.30
2015,05,29,09,59,19.20
2015,05,29,10,00,19.20
2015,05,29,10,01,19.10
2015,05,29,10,02,19.00
2015,05,29,10,03,18.90
2015,05,29,10,04,18.80
2015,05,29,10,05,18.80
2015,05,29,10,06,18.80
2015,05,29,10,07,18.80
2015,05,29,10,08,18.80
2015,05,29,10,09,18.80
2015,05,29,10,10,18.80
2015,05,29,10,11,18.70
2015,05,29,10,12,18.70
2015,05,29,10,13,18.70
2015,05,29,10,14,18.70
2015,05,29,10,15,18.70
2015,05,29,10,16,18.70
2015,05,29,10,17,18.70
2015,05,29,10,18,18.70
2015,05,29,10,19,18.70
2015,05,29,10,20,18.70
2015,05,29,10,21,18.60
2015,05,29,10,22,18.60
2015,05,29,10,23,18.60
2015,05,29,10,24,18.50
2015,05,29,10,25,18.50
2015,05,29,10,26,18.40
2015,05,29,10,27,18.40
2015,05,29,10,28,18.40
2015,05,29,10,29,18.40
2015,05,29,10,30,18.30
2015,05,29,10,31,18.30
2015,05,29,10,32,18.40
2015,05,29,10,33,18.40
2015,05,29,10,34,18.30
2015,05,29,10,35,18.30
2015,05,29,10,36,18.20
2015,05,29,10,37,18.20
2015,05,29,10,38,18.20
2015,05,29,10,39,18.20
2015,05,29,10,40,18.20
2015,05,29,10,41,18.20
2015,05,29,10,42,18.20
2015,05,29,10,43,18.10
2015,05,29,10,44,18.10
2015,05,29,10,45,18.00
2015,05,29,10,46,18.00
2015,05,29,10,47,18.10
2015,05,29,10,48,18.20
2015,05,29,10,49,18.20
2015,05,29,10,50,18.20
2015,05,29,10,51,18.20
2015,05,29,10,52,18.20
2015,05,29,10,53,18.20
2015,05,29,10,54,18.20
2015,05,29,10,55,18.20
2015,05,29,10,56,18.20
2015,05,29,10,57,18.10
2015,05,29,10,58,18.10
2015,05,29,10,59,18.10
2015,05,29,11,00,18.10
2015,05,29,11,01,18.10
2015,05,29,11,02,18.00
2015,05,29,11,03,18.00
2015,05,29,11,04,18.00
2015,05,29,11,05,18.00
2015,05,29,11,06,17.90
2015,05,29,11,07,17.90
2015,05,29,11,08,17.90
2015,05,29,11,09,17.80
2015,05,29,11,10,17.80
2015,05,29,11,11,17.80
2015,05,29,11,12,17.80
2015,05,29,11,13,17.70
2015,05,29,11,14,17.70
2015,05,29,11,15,17.70
2015,05,29,11,16,17.80
2015,05,29,11,17,17.80
2015,05,29,11,18,17.90
2015,05,29,11,19,17.90
2015,05,29,11,20,17.90
2015,05,29,11,21,17.90
2015,05,29,11,22,17.80
2015,05,29,11,23,17.80
2015,05,29,11,24,17.80
2015,05,29,11,25,17.90
2015,05,29,11,26,17.90
2015,05,29,11,27,18.00
2015,05,29,11,28,18.10
2015,05,29,11,29,18.20
2015,05,29,11,30,18.20
2015,05,29,11,31,18.20
2015,05,29,11,32,18.20
2015,05,29,11,33,18.20
2015,05,29,11,34,18.30
2015,05,29,11,35,18.40
2015,05,29,11,36,18.40
2015,05,29,11,37,18.50
2015,05,29,11,38,18.50
2015,05,29,11,39,18.50
2015,05,29,11,40,18.60
2015,05,29,11,41,18.70
2015,05,29,11,42,18.70
2015,05,29,11,43,18.70
2015,05,29,11,44,18.80
2015,05,29,11,45,18.80
2015,05,29,11,46,18.80
2015,05,29,11,47,18.80
2015,05,29,11,48,18.90
2015,05,29,11,49,18.90
2015,05,29,11,50,18.90
2015,05,29,11,51,18.90
2015,05,29,11,52,18.90
2015,05,29,11,53,18.90
2015,05,29,11,54,19.00
2015,05,29,11,55,19.00
2015,05,29,11,56,19.10
2015,05,29,11,57,19.10
2015,05,29,11,58,19.10
2015,05,29,11,59,19.10
2015,05,29,12,00,19.10
2015,05,29,12,01,19.20
2015,05,29,12,02,19.20
2015,05,29,12,03,19.20
2015,05,29,12,04,19.20
2015,05,29,12,05,19.20
2015,05,29,12,06,19.20
2015,05,29,12,07,19.10
2015,05,29,12,08,19.10
2015,05,29,12,09,19.20
2015,05,29,12,10,19.20
2015,05,29,12,11,19.30
2015,05,29,12,12,19.40
2015,05,29,12,13,19.40
2015,05,29,12,14,19.50
2015,05,29,12,15,19.60
2015,05,29,12,16,19.60
2015,05,29,12,17,19.50
2015,05,29,12,18,19.50
2015,05,29,12,19,19.40
2015,05,29,12,20,19.30
2015,05,29,12,21,19.30
2015,05,29,12,22,19.30
2015,05,29,12,23,19.30
2015,05,29,12,24,19.30
2015,05,29,12,25,19.30
2015,05,29,12,26,19.30
2015,05,29,12,27,19.20
2015,05,29,12,28,19.20
2015,05,29,12,29,19.30
2015,05,29,12,30,19.20
2015,05,29,12,31,19.20
2015,05,29,12,32,19.10
2015,05,29,12,33,19.10
2015,05,29,12,34,19.00
2015,05,29,12,35,18.90
2015,05,29,12,36,18.80
2015,05,29,12,37,18.70
2015,05,29,12,38,18.70
2015,05,29,12,39,18.70
2015,05,29,12,40,18.60
2015,05,29,12,41,18.60
2015,05,29,12,42,18.60
2015,05,29,12,43,18.60
2015,05,29,12,44,18.70
2015,05,29,12,45,18.70
2015,05,29,12,46,18.80
2015,05,29,12,47,18.90
2015,05,29,12,48,19.00
2015,05,29,12,49,19.00
2015,05,29,12,50,18.90
2015,05,29,12,51,18.90
2015,05,29,12,52,18.80
2015,05,29,12,53,18.70
2015,05,29,12,54,18.70
2015,05,29,12,55,18.70
2015,05,29,12,56,18.80
2015,05,29,12,57,18.80
2015,05,29,12,58,18.90
2015,05,29,12,59,18.90
2015,05,29,13,00,19.00
2015,05,29,13,01,19.00
2015,05,29,13,02,19.10
2015,05,29,13,03,19.20
2015,05,29,13,04,19.20
2015,05,29,13,05,19.20
2015,05,29,13,06,19.10
2015,05,29,13,07,19.10
2015,05,29,13,08,19.10
2015,05,29,13,09,19.10
2015,05,29,13,10,19.10
2015,05,29,13,11,19.20
2015,05,29,13,12,19.20
2015,05,29,13,13,19.20
2015,05,29,13,14,19.20
2015,05,29,13,15,19.20
2015,05,29,13,16,19.20
2015,05,29,13,17,19.20
2015,05,29,13,18,19.10
2015,05,29,13,19,19.10
2015,05,29,13,20,19.10
2015,05,29,13,21,19.20
2015,05,29,13,22,19.20
2015,05,29,13,23,19.20
2015,05,29,13,24,19.20
2015,05,29,13,25,19.20
2015,05,29,13,26,19.20
2015,05,29,13,27,19.20
2015,05,29,13,28,19.30
2015,05,29,13,29,19.30
2015,05,29,13,30,19.40
2015,05,29,13,31,19.40
2015,05,29,13,32,19.40
2015,05,29,13,33,19.40
2015,05,29,13,34,19.40
2015,05,29,13,35,19.40
2015,05,29,13,36,19.40
2015,05,29,13,37,19.50
2015,05,29,13,38,19.60
2015,05,29,13,39,19.70
2015,05,29,13,40,19.80
2015,05,29,13,41,19.80
2015,05,29,13,42,19.90
2015,05,29,13,43,19.90
2015,05,29,13,44,20.00
2015,05,29,13,45,20.00
2015,05,29,13,46,20.10
2015,05,29,13,47,20.10
2015,05,29,13,48,20.10
2015,05,29,13,49,20.20
2015,05,29,13,50,20.20
2015,05,29,13,51,20.20
2015,05,29,13,52,20.10
2015,05,29,13,53,20.10
2015,05,29,13,54,20.10
2015,05,29,13,55,20.10
2015,05,29,13,56,20.00
2015,05,29,13,57,20.00
2015,05,29,13,58,20.00
2015,05,29,13,59,19.90
2015,05,29,14,00,19.80
2015,05,29,14,01,19.70
2015,05,29,14,02,19.60
2015,05,29,14,03,19.60
2015,05,29,14,04,19.60
2015,05,29,14,05,19.70
2015,05,29,14,06,19.80
2015,05,29,14,07,19.80
2015,05,29,14,08,19.80
2015,05,29,14,09,19.80
2015,05,29,14,10,19.70
2015,05,29,14,11,19.70
2015,05,29,14,12,19.60
2015,05,29,14,13,19.70
2015,05,29,14,14,19.70
2015,05,29,14,15,19.70
2015,05,29,14,16,19.70
2015,05,29,14,17,19.70
2015,05,29,14,18,19.70
2015,05,29,14,19,19.60
2015,05,29,14,20,19.40
2015,05,29,14,21,19.40
2015,05,29,14,22,19.40
2015,05,29,14,23,19.40
2015,05,29,14,24,19.50
2015,05,29,14,25,19.60
2015,05,29,14,26,19.60
2015,05,29,14,27,19.60
2015,05,29,14,28,19.60
2015,05,29,14,29,19.60
2015,05,29,14,30,19.60
2015,05,29,14,31,19.70
2015,05,29,14,32,19.70
2015,05,29,14,33,19.70
2015,05,29,14,34,19.80
2015,05,29,14,35,19.90
2015,05,29,14,36,20.00
2015,05,29,14,37,20.00
2015,05,29,14,38,20.00
2015,05,29,14,39,20.00
2015,05,29,14,40,20.00
2015,05,29,14,41,20.00
2015,05,29,14,42,20.10
2015,05,29,14,43,20.20
2015,05,29,14,44,20.20
2015,05,29,14,45,20.20
2015,05,29,14,46,20.30
2015,05,29,14,47,20.30
2015,05,29,14,48,20.40
2015,05,29,14,49,20.50
2015,05,29,14,50,20.60
2015,05,29,14,51,20.80
2015,05,29,14,52,20.90
2015,05,29,14,53,21.10
2015,05,29,14,54,21.20
2015,05,29,14,55,21.30
2015,05,29,14,56,21.30
2015,05,29,14,57,21.40
2015,05,29,14,58,21.50
2015,05,29,14,59,21.60
2015,05,29,15,00,21.80
2015,05,29,15,01,21.90
2015,05,29,15,02,22.00
2015,05,29,15,03,22.20
2015,05,29,15,04,22.30
2015,05,29,15,05,22.50
2015,05,29,15,06,22.60
2015,05,29,15,07,22.70
2015,05,29,15,08,22.80
2015,05,29,15,09,22.90
2015,05,29,15,10,22.90
2015,05,29,15,11,23.00
2015,05,29,15,12,23.10
2015,05,29,15,13,23.10
2015,05,29,15,14,23.10
2015,05,29,15,15,23.10
2015,05,29,15,16,23.10
2015,05,29,15,17,23.10
2015,05,29,15,18,23.10
2015,05,29,15,19,23.20
2015,05,29,15,20,23.20
2015,05,29,15,21,23.20
2015,05,29,15,22,23.30
2015,05,29,15,23,23.30
2015,05,29,15,24,23.30
2015,05,29,15,25,23.30
2015,05,29,15,26,23.30
2015,05,29,15,27,23.40
2015,05,29,15,28,23.50
2015,05,29,15,29,23.60
2015,05,29,15,30,23.70
2015,05,29,15,31,23.70
2015,05,29,15,32,23.80
2015,05,29,15,33,23.80
2015,05,29,15,34,23.80
2015,05,29,15,35,23.90
2015,05,29,15,36,23.90
2015,05,29,15,37,24.00
2015,05,29,15,38,24.00
2015,05,29,15,39,24.10
2015,05,29,15,40,24.10
2015,05,29,15,41,24.10
2015,05,29,15,42,24.20
2015,05,29,15,43,24.30
2015,05,29,15,44,24.30
2015,05,29,15,45,24.30
2015,05,29,15,46,24.30
2015,05,29,15,47,24.20
2015,05,29,15,48,24.20
2015,05,29,15,49,24.20
2015,05,29,15,50,24.20
2015,05,29,15,51,24.20
2015,05,29,15,52,24.30
2015,05,29,15,53,24.40
2015,05,29,15,54,24.40
2015,05,29,15,55,24.40
2015,05,29,15,56,24.40
2015,05,29,15,57,24.40
2015,05,29,15,58,24.30
2015,05,29,15,59,24.30
2015,05,29,16,00,24.30
2015,05,29,16,01,24.30
2015,05,29,16,02,24.30
2015,05,29,16,03,24.20
2015,05,29,16,04,24.20
2015,05,29,16,05,24.20
2015,05,29,16,06,24.20
2015,05,29,16,07,24.30
2015,05,29,16,08,24.30
2015,05,29,16,09,24.20
2015,05,29,16,10,24.20
2015,05,29,16,11,24.20
2015,05,29,16,12,24.20
2015,05,29,16,13,24.20
2015,05,29,16,14,24.30
2015,05,29,16,15,24.40
2015,05,29,16,16,24.30
2015,05,29,16,17,24.30
2015,05,29,16,18,24.30
2015,05,29,16,19,24.30
2015,05,29,16,20,24.30
2015,05,29,16,21,24.30
2015,05,29,16,22,24.30
2015,05,29,16,23,24.30
2015,05,29,16,24,24.30
2015,05,29,16,25,24.30
2015,05,29,16,26,24.30
2015,05,29,16,27,24.30
2015,05,29,16,28,24.40
2015,05,29,16,29,24.40
2015,05,29,16,30,24.50
2015,05,29,16,31,24.50
2015,05,29,16,32,24.60
2015,05,29,16,33,24.60
2015,05,29,16,34,24.60
2015,05,29,16,35,24.60
2015,05,29,16,36,24.60
2015,05,29,16,37,24.60
2015,05,29,16,38,24.70
2015,05,29,16,39,24.70
2015,05,29,16,40,24.80
2015,05,29,16,41,24.80
2015,05,29,16,42,24.80
2015,05,29,16,43,24.80
2015,05,29,16,44,24.80
2015,05,29,16,45,24.80
2015,05,29,16,46,24.80
2015,05,29,16,47,24.90
2015,05,29,16,48,24.90
2015,05,29,16,49,24.90
2015,05,29,16,50,24.80
2015,05,29,16,51,24.80
2015,05,29,16,52,24.80
2015,05,29,16,53,24.80
2015,05,29,16,54,24.80
2015,05,29,16,55,24.90
2015,05,29,16,56,24.80
2015,05,29,16,57,24.80
2015,05,29,16,58,24.80
2015,05,29,16,59,24.80
2015,05,29,17,00,24.80
2015,05,29,17,01,24.80
2015,05,29,17,02,24.80
2015,05,29,17,03,24.80
2015,05,29,17,04,24.80
2015,05,29,17,05,24.90
2015,05,29,17,06,24.90
2015,05,29,17,07,24.80
2015,05,29,17,08,24.90
2015,05,29,17,09,24.80
2015,05,29,17,10,24.80
2015,05,29,17,11,24.80
2015,05,29,17,12,24.80
2015,05,29,17,13,24.80
2015,05,29,17,14,24.70
2015,05,29,17,15,24.70
2015,05,29,17,16,24.60
2015,05,29,17,17,24.60
2015,05,29,17,18,24.60
2015,05,29,17,19,24.60